Location: ????????
(54.8751°N, 38.5756°E)
Time: 19:12:49
(UTC+00:00)

NOAA 11 - Pass Details

Date: 14 April 2024
Orbit: 833 x 848 km, 98.5° (Epoch: 27 May)

Event Time Altitude Azimuth Distance (km) Brightness Sun altitude
Rises 01:17:39 0° 15° (NNE) 3,398 8.1 -9.6°
Reaches altitude 10° 01:20:01 10° 16° (NNE) 2,461 7.4 -9.3°
Maximum altitude 01:25:30 90° 102° (ESE) 846 4.2 -8.6°
Drops below altitude 10° 01:30:57 10° 198° (SSW) 2,453 6.2 -7.9°
Sets 01:33:18 0° 198° (SSW) 3,386 6.9 -7.6°
